#timestamp,LO_Frequency,Hit,StdDev 
1545800415.6,286047001.7,N
1545800435.5,286047001.3,N
1545800455.3,286047001.9,N
1545800475.1,286046999.7,N
1545800495.9,286047000.4,N
1545800515.7,286046998.5,N
1545800535.6,286047001.1,N
1545800555.4,286046998.6,N
1545800575.2,286046999.1,N
1545800595.4,286046996.6,N
1545800615.2,286046995.2,N
1545800635.1,286046996.0,N
1545800636.0,286046996.0,N
1545800655.8,286046995.8,N
1545800675.9,286046995.1,N
1545800695.7,286046996.8,N
1545800715.5,286046998.9,N
1545800735.4,286047000.8,N
1545800755.2,286047000.0,N
1545800775.1,286047002.1,N
1545800776.0,286047002.1,N
1545800795.8,286047000.6,N
1545800815.6,286046998.4,N
1545800835.5,286046999.5,N
1545800855.3,286046998.3,N
1545800875.1,286046999.5,N
1545800895.9,286046999.1,N
1545800915.7,286046999.3,N
1545800935.6,286046996.5,N
1545800955.4,286046999.6,N
1545800975.2,286046997.2,N
1545800995.1,286046996.8,N
1545800996.0,286046996.8,N
1545801015.8,286046997.1,N
1545801035.7,286046996.5,N
1545801055.5,286046996.9,N
1545801075.3,286046997.1,N
1545801095.2,286046995.6,N
1545801115.0,286046996.2,N
1545801115.9,286046996.2,N
1545801135.8,286046998.0,N
1545801155.6,286046998.4,N
1545801175.4,286046999.0,N
1545801195.3,286046999.3,N
1545801215.1,286046999.0,N
1545801235.9,286046999.4,N
1545801255.7,286046998.3,N
1545801275.5,286046999.1,N
1545801295.4,286046997.0,N
1545801315.2,286046998.8,N
1545801335.1,286046998.5,N
1545801336.0,286046998.5,N
1545801355.8,286046999.1,N
1545801375.6,286046996.5,N
1545801395.5,286046996.6,N
1545801415.3,286046997.1,N
1545801435.2,286046997.2,N
1545801455.9,286046998.0,N
1545801475.7,286046996.7,N
1545801495.6,286046999.5,N
1545801515.4,286046999.0,N
1545801535.2,286047001.1,N
1545801555.1,286047001.0,N
1545801556.0,286047001.0,N
1545801575.8,286047000.3,N
1545801595.7,286047001.2,N
1545801615.5,286046998.5,N
1545801635.3,286046998.9,N
1545801655.2,286046999.2,N
1545801675.9,286046999.1,N
1545801695.7,286046999.4,N
1545801715.6,286046998.3,N
1545801735.4,286046998.5,N
1545801755.3,286046998.4,N
1545801775.1,286046998.3,N
1545801776.0,286046998.3,N
1545801795.8,286047001.2,N
1545801815.7,286047000.3,N
1545801835.5,286046998.1,N
1545801855.3,286046998.7,N
1545801875.2,286046998.4,N
1545801895.0,286046998.5,N
1545801895.9,286046998.5,N
1545801915.8,286046998.1,N
1545801935.6,286046998.5,N
1545801955.4,286047001.2,N
1545801975.3,286047000.4,N
1545801995.1,286047002.6,N
1545802015.8,286047000.2,N
1545802035.7,286046999.7,N
1545802055.5,286047002.4,N
1545802075.4,286047002.1,N
1545802095.2,286047000.2,N
1545802115.0,286046999.7,N
1545802115.9,286046999.7,N
1545802135.8,286047000.0,N
1545802155.6,286047002.7,N
1545802175.4,286047000.1,N
1545802195.3,286047001.6,N
1545802215.1,286047001.8,N
1545802235.9,286047002.2,N
1545802255.7,286047002.5,N
1545802275.5,286047002.0,N
1545802295.4,286047002.8,N
1545802315.2,286047002.3,N
1545802335.0,286047000.3,N
1545802335.9,286047000.3,N
1545802355.8,286046999.8,N
1545802375.6,286047002.4,N
1545802395.5,286047002.4,N
1545802415.3,286047000.1,N
1545802435.1,286047000.0,N
1545802455.9,286046999.9,N
1545802475.7,286047002.8,N
1545802495.5,286046999.9,N
1545802515.4,286047000.5,N
1545802535.2,286047000.9,N
1545802555.1,286046999.9,N
1545802556.0,286046999.9,N
1545802575.8,286047002.3,N
1545802595.6,286047002.2,N
1545802615.5,286047002.1,N
1545802635.3,286047002.1,N
1545802655.1,286047001.8,N
1545802675.9,286047004.4,Y
1545802695.7,286047004.3,P
1545802715.6,286047004.2,N
1545802735.4,286047001.4,N
1545802755.2,286047001.5,N
1545802775.1,286047001.7,N
1545802776.0,286047001.7,N
1545802795.8,286047002.8,N
1545802815.6,286047000.2,N
1545802835.5,286047002.3,N
1545802855.3,286046999.7,N
1545802875.2,286047002.4,N
1545802895.9,286047000.1,N
1545802915.7,286047002.2,N
1545802935.6,286047001.6,N
1545802955.4,286047002.3,N
1545802975.2,286047000.7,N
1545802995.1,286047001.1,N
1545802996.0,286047001.1,N
1545803015.8,286047000.7,N
1545803035.7,286047002.3,N
1545803055.5,286047002.2,N
1545803075.3,286047001.7,N
1545803095.2,286047002.3,N
1545803115.0,286046999.7,N
1545803115.9,286046999.7,N
1545803135.7,286046999.7,N
1545803155.6,286047002.0,N
1545803175.4,286047002.3,N
1545803195.3,286047002.2,N
1545803215.1,286047003.9,Y
1545803235.8,286047002.8,P
1545803255.7,286047000.6,N
1545803275.5,286046999.7,N
1545803295.3,286047001.2,N
1545803315.2,286047001.0,N
1545803335.0,286046998.6,N
1545803335.9,286046998.6,N
1545803355.8,286047001.2,N
1545803375.6,286046998.6,N
1545803395.4,286047002.8,N
1545803415.3,286047002.6,N
1545803435.1,286047001.2,N
1545803455.9,286046998.2,N
1545803475.7,286046998.4,N
1545803495.5,286046998.3,N
1545803515.4,286047000.7,N
1545803535.2,286047000.4,N
1545803555.0,286047000.4,N
1545803555.9,286047000.4,N
1545803575.8,286047000.5,N
1545803595.6,286047002.4,N
1545803615.5,286047002.3,N
1545803635.3,286047001.6,N
1545803655.1,286047004.3,N
1545803675.9,286047004.0,N
1545803695.7,286047002.3,N
1545803715.5,286047001.3,N
1545803765.4,286047002.6,E
1545803775.3,286046998.1,N
1545803795.2,286046997.3,P
1545803815.0,286046997.7,P
1545803815.9,286046997.7,Y
1545803835.8,286046998.4,P
1545803855.6,286046998.3,P
1545803875.4,286046998.5,P
1545803895.3,286046998.2,Y
1545803915.1,286047002.5,P
1545803935.8,286047002.3,N
1545803955.7,286046999.9,N
1545803975.5,286047002.7,N
1545803995.4,286046999.9,N
